Theta_e
313 313 313 313 313 313 312 312 311 311 311 309 310 308 307 309 309 301 296 305 308 312 308 301 305 308 312 311 314 316 304 301 303 300 301 303 299 306 307 305 309 310 306 303 303
312 312 312 312 312 312 312 312 312 312 311 310 308 305 308 303 298 295 305 311 312 310 299 302 303 307 305 306 308 308 302 300 297 297 296 297 298 298 297 297 298 301 302 300 300
311 311 311 312 312 312 312 312 312 312 312 311 309 306 302 305 295 293 307 310 309 309 300 301 303 303 300 303 302 302 300 299 294 294 292 292 292 294 292 291 295 293 294 296 297
311 311 311 311 311 311 311 311 311 311 311 312 310 303 302 299 288 296 307 307 309 303 300 298 298 296 296 294 297 294 294 295 292 291 290 289 292 291 292 293 295 295 295 296 295
310 311 311 311 311 310 310 311 311 310 312 311 310 301 300 293 290 299 306 305 301 300 297 296 294 295 291 291 293 291 290 290 290 290 290 292 291 290 292 295 295 295 296 296 297
310 310 310 310 311 309 310 310 310 310 309 309 309 309 298 289 297 300 299 299 298 298 295 296 294 295 292 290 291 291 290 289 290 290 290 289 291 292 293 294 294 294 295 296 297
310 310 310 310 310 309 309 309 309 309 308 308 305 298 293 289 298 299 299 297 298 297 294 296 296 295 294 289 291 289 287 289 289 289 289 291 289 289 293 293 292 293 295 296 297
310 310 310 310 309 307 308 308 307 307 306 305 304 299 289 296 300 298 299 297 299 298 297 297 297 294 291 291 289 288 289 287 288 288 289 290 288 290 293 292 291 293 294 295 296
310 310 310 309 309 306 307 306 306 305 304 304 299 298 289 298 294 297 298 294 296 297 298 298 297 293 292 289 288 289 286 285 287 287 287 287 287 292 293 291 291 292 293 293 294
310 310 310 309 308 306 306 303 305 304 302 297 297 295 293 290 294 295 298 296 293 295 295 295 294 291 290 289 284 282 283 284 284 288 286 285 287 291 292 290 291 292 293 293 293
310 310 309 308 307 305 305 302 299 299 295 289 289 289 291 295 296 294 296 295 295 293 288 290 289 284 285 285 284 283 283 283 287 287 283 286 287 289 291 290 290 291 292 292 293
310 309 308 306 304 304 304 296 293 296 289 291 290 290 291 294 290 292 297 292 292 287 288 289 283 285 285 285 284 283 283 284 286 285 283 285 285 289 291 290 290 290 291 292 292
310 308 307 306 303 301 298 295 299 298 291 287 289 289 289 292 287 288 292 290 288 286 286 285 283 285 284 284 283 284 282 281 280 283 286 283 285 287 289 290 291 292 293 293 292
309 308 306 304 300 298 294 298 300 299 287 286 286 289 290 290 286 291 292 289 288 285 285 284 284 283 283 282 283 280 283 282 281 280 281 284 281 288 289 288 290 291 292 292 292
308 306 305 302 298 295 296 299 299 297 286 285 286 292 290 288 287 288 292 291 285 284 285 282 282 282 282 282 284 283 284 282 281 280 280 281 279 287 287 286 288 290 291 292 293
305 304 303 302 300 296 299 299 297 289 285 285 285 285 285 287 286 288 288 291 289 285 285 283 285 284 283 284 284 284 284 282 281 280 278 280 279 283 287 286 288 290 291 292 292
304 302 301 300 296 299 299 296 288 285 283 286 285 284 284 284 284 285 285 285 285 285 285 282 282 283 283 282 284 285 283 283 282 281 281 280 278 283 289 289 289 289 290 291 292
302 301 298 298 300 299 296 293 285 286 286 282 282 282 283 282 283 283 283 284 283 282 284 283 281 281 282 281 279 280 280 280 275 276 279 281 276 284 288 290 290 291 291 291 291
302 305 302 299 298 297 294 284 288 288 285 282 281 281 285 280 280 282 282 284 284 282 284 282 281 281 282 283 282 280 281 281 277 275 273 279 283 288 289 288 288 289 290 291 291
303 301 300 299 297 296 286 286 288 285 284 284 285 284 286 282 281 282 283 284 283 283 282 281 281 280 280 282 282 280 283 278 279 274 274 279 281 282 287 288 288 289 289 289 291
300 294 297 298 296 289 285 285 284 283 284 283 284 282 285 283 284 286 287 285 285 282 282 282 280 279 279 278 280 278 278 277 277 277 274 273 280 287 287 287 286 287 289 290 291
298 286 296 296 286 284 285 285 281 283 284 283 283 284 283 283 283 281 285 284 286 284 280 282 282 278 282 280 280 280 280 280 278 275 276 274 276 289 288 287 286 289 290 291 291
290 290 296 294 284 284 283 280 281 282 283 284 282 283 283 282 282 282 281 283 285 284 282 282 280 278 279 277 278 277 279 280 280 277 275 274 279 288 286 286 289 289 290 290 291
289 283 287 290 287 285 283 283 282 284 283 284 284 283 281 280 282 281 280 282 284 285 284 284 280 280 280 281 281 276 277 279 278 276 276 276 280 284 286 288 288 289 289 289 289
289 285 286 280 282 283 285 285 280 280 281 283 281 281 282 279 279 277 281 281 282 285 284 282 276 277 277 278 279 277 276 277 275 277 276 280 281 285 287 287 287 288 288 289 288
285 283 282 286 284 283 283 283 282 281 280 280 280 282 282 281 283 280 281 281 280 282 282 281 276 273 272 277 277 274 277 278 277 278 278 278 278 285 287 288 287 287 288 287 287
293 289 288 284 282 282 283 284 282 283 283 285 282 282 280 282 285 284 285 285 285 281 280 279 277 273 274 273 273 272 275 276 278 279 279 275 281 287 287 286 287 287 287 286 287
Wind_Speed
16 16 15 14 13 13 14 14 14 13 12 8 5 3 4 8 5 22 24 17 19 22 17 6 4 5 5 4 2 3 6 8 5 4 6 9 11 9 12 17 12 10 7 18 23
16 16 16 15 14 14 13 13 12 12 11 11 7 4 1 4 4 26 19 24 22 20 7 5 8 7 5 3 3 4 5 7 6 6 8 13 12 16 12 17 16 16 19 22 24
16 17 16 16 15 15 14 14 14 13 13 12 11 5 4 6 1 13 26 24 20 16 4 3 2 4 7 6 5 4 4 5 5 7 10 11 12 13 12 11 16 18 21 22 21
17 17 16 15 16 16 15 14 14 14 14 14 13 5 3 6 4 13 25 22 18 16 5 4 2 3 5 6 4 6 6 4 3 7 5 10 11 11 7 9 13 17 18 18 18
17 18 17 17 17 17 15 14 13 14 15 15 13 3 7 10 8 14 19 16 12 16 17 7 11 7 7 7 11 9 4 5 5 6 3 12 6 4 5 10 12 12 14 16 17
15 16 17 18 17 18 16 13 12 12 14 15 15 11 1 9 9 15 14 14 18 17 19 16 8 9 11 6 8 4 4 2 4 7 4 12 8 6 8 10 12 12 13 15 16
15 16 18 19 17 19 16 12 11 14 12 13 11 4 19 9 6 14 12 7 13 15 14 15 7 4 1 6 3 3 2 3 3 9 4 14 6 1 8 11 12 11 10 13 15
16 17 18 19 18 20 15 11 11 11 10 11 10 5 7 2 6 15 16 3 10 10 6 9 5 9 6 2 2 1 3 4 5 8 5 11 3 2 6 10 12 11 10 12 13
15 15 16 17 18 20 16 10 9 9 9 9 4 5 5 1 6 12 9 9 10 5 7 5 6 6 4 1 4 2 4 7 4 4 8 7 11 3 6 7 10 8 9 10 12
15 15 17 18 18 20 14 6 7 5 5 1 4 0 5 6 7 12 8 7 4 7 2 7 3 7 11 6 3 7 6 7 8 4 9 16 17 12 7 6 8 9 10 11 12
15 17 18 19 16 17 6 3 4 2 12 7 4 3 4 10 3 12 7 9 3 5 5 8 9 9 9 8 2 4 7 11 10 5 14 7 15 15 8 7 7 8 10 11 13
14 14 16 18 9 13 3 6 4 5 4 5 3 2 3 5 4 16 14 5 6 6 3 3 7 4 2 4 1 4 9 8 8 4 8 13 22 18 11 8 6 9 11 12 14
13 13 15 19 9 5 10 6 3 3 3 3 3 3 3 6 5 11 12 4 7 7 9 5 6 2 3 2 6 3 4 10 9 16 9 12 14 11 10 7 7 9 9 11 13
12 13 15 19 2 3 5 3 2 3 4 2 1 4 1 3 2 5 6 3 4 5 5 5 3 1 4 3 6 3 2 9 13 8 4 5 7 8 9 8 7 6 7 11 13
11 13 12 15 2 3 4 4 3 4 2 2 2 4 3 4 3 4 3 2 4 4 2 4 0 2 4 5 6 4 12 9 7 6 7 7 6 2 8 7 4 6 8 10 12
9 13 11 1 4 3 4 4 4 6 5 1 4 4 1 4 3 4 1 3 2 2 2 3 1 1 4 7 7 14 12 6 4 4 4 7 4 10 4 3 5 6 9 11 14
5 11 6 3 3 5 5 2 5 3 1 1 1 3 3 4 1 4 2 1 2 1 1 5 3 3 1 6 5 10 7 3 2 3 4 7 7 13 9 6 9 10 11 14 15
4 0 5 4 3 5 4 3 1 1 3 1 1 3 0 4 1 3 2 3 1 3 2 2 4 5 1 1 1 5 5 4 5 5 10 6 8 5 0 9 11 12 11 13 17
2 1 0 4 3 2 2 2 6 4 5 8 3 1 0 1 2 2 2 3 2 1 2 2 2 3 2 1 2 4 1 5 5 2 4 6 8 16 4 1 2 6 11 18 20
3 2 1 5 4 1 5 5 3 0 4 3 6 5 6 5 3 3 3 3 5 2 2 2 4 1 4 2 2 3 5 3 2 5 7 7 10 11 9 8 7 11 17 20 21
3 2 4 3 4 4 4 7 4 4 3 4 4 5 3 5 4 4 3 3 5 6 3 2 1 4 1 6 4 4 3 2 3 2 4 8 6 4 8 6 6 13 16 21 21
3 3 3 3 2 0 4 6 1 4 3 3 3 4 8 8 6 5 6 3 8 9 5 5 1 4 2 4 1 2 4 7 4 4 4 4 14 9 6 5 8 18 19 20 20
3 1 2 3 4 5 1 3 4 5 6 4 5 6 2 7 3 6 4 2 11 9 6 7 3 4 4 3 1 6 7 8 3 2 9 5 10 5 5 9 15 19 19 19 21
4 4 2 3 1 3 5 5 5 6 2 4 2 3 4 8 6 2 5 4 9 7 3 7 4 6 8 2 2 5 8 13 9 6 7 20 25 28 22 18 21 20 20 21 20
3 6 4 7 9 9 5 6 6 7 4 7 5 11 7 6 6 7 8 6 6 8 6 4 6 5 11 15 11 12 13 14 22 22 13 17 18 29 26 25 22 18 19 20 19
7 6 1 3 3 14 11 10 12 6 11 6 9 9 13 7 8 9 11 8 7 12 10 5 3 1 5 10 11 16 23 20 25 26 27 33 35 30 27 17 13 15 18 19 19
4 0 5 8 7 9 9 13 20 14 12 10 17 8 15 19 7 1 1 2 5 12 15 9 6 3 5 2 9 14 18 25 14 14 23 22 25 18 13 17 12 15 19 19 18
Wind_Direction
48 44 43 38 29 32 35 32 34 36 36 21 16 330 269 318 19 46 39 344 334 334 313 286 221 160 205 102 18 280 245 255 332 11 347 1 336 316 329 289 320 312 2 342 331
40 39 35 31 23 21 24 25 17 18 24 24 356 347 312 276 332 42 2 350 343 329 3 16 97 162 93 87 24 289 249 37 33 17 330 323 326 318 320 318 305 351 335 333 330
34 34 28 26 22 18 12 13 2 3 360 4 10 327 299 255 191 11 352 351 345 342 41 36 79 95 86 64 9 15 26 107 54 17 334 324 315 334 317 322 2 332 326 328 325
24 26 23 21 19 11 3 4 2 2 356 358 4 1 203 215 51 344 342 342 334 10 74 32 340 79 84 68 19 111 62 28 33 7 347 340 315 319 344 345 347 331 332 333 334
20 18 14 11 10 2 352 357 356 353 355 355 0 3 250 60 37 333 338 347 5 31 42 50 49 68 87 87 72 79 90 65 40 347 312 331 316 343 358 346 332 336 338 344 345
17 11 9 6 1 355 350 348 348 344 345 350 350 306 271 71 322 350 345 10 16 24 38 44 59 58 72 58 40 80 89 76 11 13 231 342 310 293 12 347 343 347 348 351 352
12 7 6 2 357 349 347 342 340 341 342 346 351 31 63 64 1 356 357 14 20 22 43 36 32 95 121 108 49 102 125 270 355 356 345 328 224 348 350 345 337 347 353 349 359
8 4 2 356 351 346 346 336 327 335 337 338 322 42 71 357 335 9 2 4 1 22 38 38 37 75 38 141 158 165 257 273 88 355 8 340 79 119 345 338 339 343 345 347 351
2 360 355 352 347 347 339 324 316 325 337 337 2 350 70 300 9 353 14 349 323 355 28 38 51 72 132 337 178 94 358 344 324 63 335 336 307 305 334 325 321 328 328 333 336
355 353 352 349 346 341 323 297 317 287 309 193 84 147 47 358 329 322 359 340 349 325 168 27 32 91 42 11 66 344 343 331 308 353 324 294 263 301 284 294 321 326 322 322 331
354 352 350 344 341 344 327 260 243 177 38 51 13 24 359 335 303 12 347 325 331 55 35 23 62 55 51 51 47 295 303 303 311 352 315 280 284 296 272 266 308 328 335 331 324
351 349 347 341 337 354 8 64 60 351 72 40 45 76 12 340 322 14 349 31 25 51 342 129 71 49 38 33 352 241 301 342 305 39 311 295 284 280 237 257 291 323 334 329 326
349 350 348 342 317 19 74 65 341 313 273 76 47 14 350 337 40 358 1 5 20 39 25 52 77 52 289 308 340 199 291 330 303 316 264 292 260 196 218 242 272 289 318 325 334
352 352 352 337 280 348 48 7 337 307 80 314 79 62 339 351 76 357 13 20 64 47 21 51 82 347 286 298 333 281 70 315 300 313 325 0 295 225 198 235 255 293 326 322 335
0 359 355 17 17 43 14 313 293 239 316 70 44 344 359 11 342 59 353 286 75 100 261 81 277 338 296 352 325 315 334 305 292 275 323 169 262 168 175 243 276 321 316 327 324
22 11 337 32 63 22 313 302 254 39 255 76 332 350 300 35 40 328 12 72 21 115 78 82 100 285 346 306 271 300 290 239 245 253 241 109 353 283 214 274 288 309 321 325 325
47 42 28 358 42 338 308 260 29 167 82 202 120 34 14 4 41 5 357 74 274 79 178 168 164 140 299 296 213 323 296 289 254 230 286 148 280 255 280 277 280 298 307 314 323
58 10 56 65 8 339 278 61 163 43 222 41 149 114 298 2 76 339 286 251 239 295 113 244 221 190 147 63 325 349 332 333 300 302 310 202 241 258 316 281 274 285 297 310 303
200 4 63 39 10 321 44 86 217 205 142 162 135 95 245 142 302 316 244 293 29 15 284 206 196 111 25 262 288 83 278 353 303 63 279 245 252 263 261 327 315 294 297 325 323
259 272 80 342 335 210 77 254 235 314 134 194 202 198 192 178 198 214 179 157 171 124 112 102 275 37 109 226 81 307 105 227 183 304 293 273 286 260 280 318 326 332 328 318 315
237 268 77 319 265 54 187 224 246 216 216 224 244 160 220 180 200 205 219 175 183 144 95 139 241 124 240 195 177 153 196 212 300 244 281 306 275 27 314 303 302 321 315 320 317
150 258 41 297 83 352 196 194 6 191 181 226 267 252 200 169 188 233 221 225 170 159 166 171 271 255 260 119 49 328 248 204 241 175 246 306 269 287 292 285 301 315 319 326 317
182 155 108 267 207 204 133 267 254 185 199 186 227 213 192 191 224 199 205 108 176 172 168 177 199 285 197 174 176 221 200 228 303 303 225 229 256 141 191 241 287 314 323 320 320
137 165 188 224 194 243 159 214 213 205 253 177 151 86 172 209 222 209 222 171 182 202 102 172 229 240 253 28 56 206 200 209 197 227 240 228 280 280 288 297 325 319 318 317 317
176 205 174 180 229 205 189 163 172 199 225 205 210 216 178 191 193 226 202 148 178 187 179 185 247 226 269 280 261 259 251 203 209 222 240 263 267 280 301 305 311 310 313 315 322
159 158 178 169 167 183 189 198 198 167 158 213 231 190 202 201 189 193 181 183 194 180 178 182 245 43 268 272 278 267 260 232 230 239 248 260 273 270 280 284 293 305 311 317 317
135 311 136 167 169 168 200 194 208 159 220 192 208 198 208 229 204 15 72 264 169 172 183 169 199 184 265 28 314 270 250 215 212 225 224 238 246 282 291 297 305 310 308 306 312